Location: Sungai Bunut
(2.6333°N, 113.7333°E)
Time: 02:02:42
(UTC+00:00)

S-56A Canister/Altair - Pass Details

Date: 11 December 2023
Orbit: 640 x 2488 km, 38.9° (Epoch: 24 February)

Event Time Altitude Azimuth Distance (km) Brightness Sun altitude
Rises 08:38:57 0° 335° (NNW) 3,192 10.7 21.6°
Reaches altitude 10° 08:41:28 10° 348° (NNW) 2,426 10.0 21.0°
Maximum altitude 08:46:15 27° 46° (NE) 1,840 9.1 19.9°
Drops below altitude 10° 08:52:41 10° 100° (E) 3,334 10.4 18.5°
Sets 08:56:46 0° 111° (ESE) 4,661 11.1 17.6°
